Hourly Data Report for May 07, 2016

LA RONGE RCS
SASKATCHEWAN

55°08'47.020" N
105°16'13.030" W
378.60 m
4064149
71586
XOX

Download Data

Hourly Data (May 2016)
Hourly Data Report for May 7, 2016
TIME
LST
Temp Definition
°C
Dew Point Definition
°C
Rel Hum Definition
%
Precip. Amount Definition
mm

Wind Dir Definition
10's deg

Wind Spd Definition
km/h
Visibility Definition
km
Stn Press Definition
kPa
Hmdx Definition


Wind Chill Definition


Weather Definition


00:00 6.0 -3.2 52 0.0 27 5   97.18     LegendNANA
01:00 5.1 -1.5 63 0.0 24 4   97.18     LegendNANA
02:00 4.4 -1.6 65 0.0 25 4   97.12     LegendNANA
03:00 3.7 -1.6 68 0.0 27 4   97.09     LegendNANA
04:00 1.9 -2.2 74 0.0 27 3   97.06     LegendNANA
05:00 1.5 -1.8 79 0.0 10 2   97.04     LegendNANA
06:00 1.8 -1.6 78 0.0 0 1   96.99     LegendNANA
07:00 3.4 -2.2 67 0.0 15 5   97.00     LegendNANA
08:00 5.6 -1.9 58 0.0 16 6   96.92     LegendNANA
09:00 8.3 -2.1 48 0.0 15 7   96.85     LegendNANA
10:00 11.6 -1.7 40 0.0 17 7   96.78     LegendNANA
11:00 13.7 -1.9 34 0.0 12 8   96.69     LegendNANA
12:00 12.9 -3.3 32 0.0 12 10   96.61     LegendNANA
13:00 11.2 -1.0 43 0.0 5 9   96.50     LegendNANA
14:00 13.7 -1.3 35 0.0 6 6   96.42     LegendNANA
15:00 11.1 -0.3 45 0.0 5 9   96.34     LegendNANA
16:00 17.2 -1.8 27 0.0 11 21   96.24     LegendNANA
17:00 17.7 -0.6 29 0.0 10 23   96.15     LegendNANA
18:00 16.4 -0.9 31 0.0 11 21   96.08     LegendNANA
19:00 12.2 -1.0 40 0.0 9 12   96.04     LegendNANA
20:00 14.0 -0.8 36 0.0 13 18   95.94     LegendNANA
21:00 8.8 -0.3 53 0.0 6 12   95.94     LegendNANA
22:00 12.3 -0.4 41 0.0 13 17   95.90     LegendNANA
23:00 11.6 -0.7 42 0.0 14 19   95.85     LegendNANA

Notes on Data Quality.

Legend

  • E = Estimated
  • M = Missing
  • NA = Not Available*
  • [empty] = Indicates an unobserved value
Date modified: